LA5PPA-1 Mjondalen NO current weather conditions

sailwx.info

Wind from 327 at 10 knots gusting 11

Air temperature -2.8° C
Dewpoint -8.0° C

Last reported at 2020-Feb-28 14:06 UTC.
Time now 2020-Feb-28 14:32 UTC

Location: N 60°34' E 009°15'.
View on Google Maps.

See reports from other nearby stations

  
Tides and Currents Weather Stations Pressure Air Temp Water Temp Dewpoint Dewpoint Depression Visibility Wind Speed Wind Dir Waves Ship Positions
date/time (UTC)wind fromknots sea level pressurealtimeterstation pressurevisibilityair tempwater tempwave heightnotes
2020-Feb-28 14:06 327 10 gusting 11 -2.8
2020-Feb-28 13:56 271 5 gusting 6 -2.2
2020-Feb-28 13:46 319 1 gusting 7 -2.2
2020-Feb-28 13:36 333 2 gusting 7 -2.8
2020-Feb-28 13:26 320 2 gusting 6 -2.8
2020-Feb-28 13:16 330 1 gusting 6 -2.8
2020-Feb-28 13:06 324 5 gusting 10 -2.8
2020-Feb-28 12:56 333 1 gusting 6 -2.8
2020-Feb-28 12:46 090 0 gusting 6 -2.8
2020-Feb-28 12:36 327 5 gusting 7 -2.8
2020-Feb-28 12:26 299 4 gusting 7 -2.8
2020-Feb-28 12:16 312 3 gusting 7 -2.8
2020-Feb-28 12:06 312 1 gusting 7 -2.8
2020-Feb-28 11:56 315 5 gusting 8 -3.3
2020-Feb-28 11:46 340 5 gusting 9 -3.3
2020-Feb-28 11:36 275 4 gusting 8 -3.3
2020-Feb-28 11:26 334 1 gusting 7 -3.3
2020-Feb-28 11:16 319 3 gusting 6 -2.8
2020-Feb-28 11:06 319 6 gusting 6 -2.8
2020-Feb-28 10:56 295 5 gusting 6 -2.8
2020-Feb-28 10:46 052 -3.3
2020-Feb-28 10:36 127 -3.9
2020-Feb-28 10:26 226 -4.4
2020-Feb-28 10:16 028 -4.4
2020-Feb-28 10:06 215 -4.4
2020-Feb-28 09:56 312 -3.9
2020-Feb-28 09:46 026 0 gusting 1 -4.4
2020-Feb-28 09:36 320 -5.0
2020-Feb-28 09:26 116 0 gusting 7 -6.1
2020-Feb-28 09:16 337 -6.7
2020-Feb-28 09:06 230 1 gusting 1 -6.7
2020-Feb-28 08:56 084 -7.2
2020-Feb-28 08:46 115 -7.2
2020-Feb-28 08:26 333 -7.8
2020-Feb-28 08:16 323 0 gusting 0 -8.3
2020-Feb-28 08:06 132 -8.9
2020-Feb-28 07:56 132 -8.9
2020-Feb-28 07:46 132 -9.4
2020-Feb-28 07:36 163 0 gusting 0 -9.4
2020-Feb-28 07:26 104 -10.0
2020-Feb-28 07:16 168 -10.6
2020-Feb-28 07:06 168 -11.1
2020-Feb-28 06:56 067 -11.1
2020-Feb-28 06:46 067 -11.7
2020-Feb-28 06:36 067 -11.7
2020-Feb-28 06:26 067 -11.7
2020-Feb-28 06:16 053 -11.7
2020-Feb-28 06:06 060 0 gusting 0 -12.2
2020-Feb-28 05:56 120 -12.2
2020-Feb-28 05:46 120 -12.2
2020-Feb-28 05:36 120 -12.2
2020-Feb-28 05:26 120 -12.2
2020-Feb-28 05:06 120 -12.2
2020-Feb-28 04:56 120 -12.2
2020-Feb-28 04:46 120 -11.7
2020-Feb-28 04:36 120 -11.7
2020-Feb-28 04:26 120 -11.7
2020-Feb-28 04:16 184 -11.7
2020-Feb-28 04:06 167 0 gusting 1 -11.7
2020-Feb-28 03:56 101 -12.2
2020-Feb-28 03:46 161 -12.2
2020-Feb-28 03:36 136 -12.2
2020-Feb-28 03:26 136 -12.2
2020-Feb-28 03:16 129 -12.2
2020-Feb-28 03:06 140 0 gusting 1 -12.2
2020-Feb-28 02:56 149 0 gusting 1 -12.8
2020-Feb-28 02:46 111 -12.2
2020-Feb-28 02:36 146 0 gusting 1 -12.2
2020-Feb-28 02:06 087 -13.3
2020-Feb-28 01:56 087 -13.3
2020-Feb-28 01:46 087 -13.3
2020-Feb-28 01:26 087 -12.8
2020-Feb-28 01:16 087 -12.8
2020-Feb-28 01:06 087 -12.8
2020-Feb-28 00:56 087 -12.8
2020-Feb-28 00:46 087 -12.8
2020-Feb-28 00:26 087 -12.8
2020-Feb-28 00:16 087 -12.8
2020-Feb-28 00:06 095 -12.8
2020-Feb-27 23:56 129 -12.2
2020-Feb-27 23:46 151 1 gusting 2 -12.2
2020-Feb-27 23:36 153 1 gusting 2 -12.8
2020-Feb-27 23:16 150 -13.3
2020-Feb-27 22:56 149 -12.8
2020-Feb-27 22:46 130 0 gusting 1 -12.8
2020-Feb-27 22:36 133 -12.8
2020-Feb-27 22:26 151 1 gusting 1 -12.8
2020-Feb-27 22:16 201 0 gusting 0 -13.3
2020-Feb-27 22:06 067 -13.3
2020-Feb-27 21:56 115 -13.3
2020-Feb-27 21:46 115 -13.3
2020-Feb-27 21:36 122 0 gusting 1 -12.8
2020-Feb-27 21:26 129 0 gusting 1 -12.8
2020-Feb-27 21:16 133 2 gusting 2 -12.8
2020-Feb-27 21:06 136 -12.8
2020-Feb-27 20:56 136 -12.8
2020-Feb-27 20:46 136 -12.8
2020-Feb-27 20:36 136 -12.8
2020-Feb-27 20:26 153 0 gusting 0 -12.8
2020-Feb-27 20:16 054 -12.8
2020-Feb-27 20:06 078 -12.8
2020-Feb-27 19:56 078 -12.8
2020-Feb-27 19:46 078 -12.8
2020-Feb-27 19:36 078 -12.8
2020-Feb-27 19:26 078 -12.8
2020-Feb-27 19:16 078 -12.8
2020-Feb-27 19:06 078 -12.8
2020-Feb-27 18:56 078 -12.2
2020-Feb-27 18:46 078 -12.2
2020-Feb-27 18:36 078 -12.2
2020-Feb-27 18:26 078 -11.7
2020-Feb-27 18:16 078 -11.7
2020-Feb-27 18:06 078 -11.1
2020-Feb-27 17:56 144 -10.6
2020-Feb-27 17:46 167 -10.6
2020-Feb-27 17:36 213 0 gusting 3 -10.6
2020-Feb-27 17:16 104 -10.6
2020-Feb-27 17:06 057 -10.6
2020-Feb-27 16:56 057 -10.6
2020-Feb-27 16:46 057 -10.0
2020-Feb-27 16:36 050 1 gusting 3 -9.4
2020-Feb-27 16:26 130 -8.9
2020-Feb-27 16:16 130 -8.3
2020-Feb-27 16:06 130 -8.3
2020-Feb-27 15:56 130 -7.8
2020-Feb-27 15:46 151 0 gusting 3 -7.8
2020-Feb-27 15:36 160 0 gusting 3 -7.2
2020-Feb-27 15:26 329 0 gusting 3 -6.7
2020-Feb-27 15:16 205 -6.1
2020-Feb-27 15:06 227 -6.1
2020-Feb-27 14:56 260 -6.1
2020-Feb-27 14:46 310 -6.1
2020-Feb-27 14:36 320 1 gusting 2 -5.6
2020-Feb-27 14:26 147 1 gusting 4 -5.6
2020-Feb-27 14:16 289 0 gusting 4 -6.1
2020-Feb-27 14:06 317 -5.6
2020-Feb-27 13:56 284 -5.6
2020-Feb-27 13:46 324 2 gusting 6 -5.0
2020-Feb-27 13:36 123 -4.4
2020-Feb-27 13:26 262 0 gusting 5 -5.0
2020-Feb-27 13:16 140 -5.6
2020-Feb-27 13:06 338 0 gusting 5 -5.6
2020-Feb-27 12:56 180 3 gusting 6 -5.0
2020-Feb-27 12:46 126 -5.6
2020-Feb-27 12:36 136 -5.6
2020-Feb-27 12:26 233 5 gusting 6 -5.6
2020-Feb-27 12:16 205 -5.6
2020-Feb-27 12:06 177 4 gusting 6 -5.6
2020-Feb-27 11:56 185 2 gusting 3 -5.6
2020-Feb-27 11:46 154 2 gusting 6 -6.1
2020-Feb-27 11:36 113 -6.1
2020-Feb-27 11:26 281 -6.7
2020-Feb-27 11:16 168 -6.7
2020-Feb-27 11:06 233 2 gusting 7 -6.7
2020-Feb-27 10:56 206 1 gusting 6 -6.7
2020-Feb-27 10:46 217 0 gusting 6 -6.7
2020-Feb-27 10:36 227 2 gusting 7 -6.7
2020-Feb-27 10:26 154 2 gusting 6 -7.2
2020-Feb-27 10:16 094 -7.2
2020-Feb-27 09:56 109 -7.8
2020-Feb-27 09:46 123 2 gusting 5 -8.3
2020-Feb-27 09:36 123 2 gusting 5 -8.3
2020-Feb-27 09:26 201 0 gusting 3 -8.3
2020-Feb-27 09:16 108 -8.3
2020-Feb-27 09:06 108 -8.9
2020-Feb-27 08:06 140 1 gusting 2 -11.1
2020-Feb-27 07:56 068 -11.7
2020-Feb-27 07:46 047 -11.7
2020-Feb-27 07:26 070 -12.2
2020-Feb-27 07:06 067 -12.2
2020-Feb-27 06:56 105 0 gusting 2 -12.2
2020-Feb-27 06:46 147 -12.2
2020-Feb-27 06:36 047 -12.2
2020-Feb-27 06:26 035 -12.2
2020-Feb-27 05:56 084 -12.2
2020-Feb-27 05:46 135 -12.8
2020-Feb-27 05:36 146 0 gusting 0 -12.8
2020-Feb-27 05:16 028 -13.3
2020-Feb-27 05:06 092 -13.3
2020-Feb-27 04:56 047 -13.9
2020-Feb-27 04:46 060 -13.9
2020-Feb-27 04:36 060 -13.9
2020-Feb-27 04:26 052 -14.4
2020-Feb-27 04:16 102 -14.4
2020-Feb-27 04:06 154 -15.0
2020-Feb-27 03:56 104 -15.0
2020-Feb-27 03:46 080 -15.0
2020-Feb-27 03:36 071 -15.6
2020-Feb-27 03:26 071 -15.6
2020-Feb-27 03:16 071 -15.6
2020-Feb-27 03:06 052 -16.1
2020-Feb-27 02:56 028 -16.1
2020-Feb-27 02:46 053 -16.1
2020-Feb-27 02:36 033 -16.1
2020-Feb-27 02:26 073 0 gusting 0 -16.1
2020-Feb-27 02:16 132 -15.6
2020-Feb-27 02:06 132 -15.6
2020-Feb-27 01:56 132 -15.6
2020-Feb-27 01:46 132 -15.0
2020-Feb-27 01:36 052 -15.0
2020-Feb-27 01:26 052 -15.0
2020-Feb-27 01:16 073 -15.0
2020-Feb-27 01:06 064 -15.0
2020-Feb-27 00:56 061 0 gusting 1 -15.0
2020-Feb-27 00:46 025 -15.0
2020-Feb-27 00:36 025 -15.0
2020-Feb-27 00:26 025 -15.6
2020-Feb-27 00:16 025 -15.6
2020-Feb-27 00:06 025 -15.6
2020-Feb-26 23:56 025 -15.6
2020-Feb-26 23:46 025 -15.6
2020-Feb-26 23:36 025 -15.0
2020-Feb-26 23:26 025 -14.4
2020-Feb-26 23:06 025 -14.4
2020-Feb-26 22:56 025 -14.4
2020-Feb-26 22:46 025 -14.4
2020-Feb-26 22:36 025 -14.4
2020-Feb-26 22:26 025 -14.4
2020-Feb-26 22:16 025 -14.4
2020-Feb-26 22:06 049 0 gusting 2 -14.4
2020-Feb-26 21:56 077 -14.4
2020-Feb-26 21:46 043 -14.4
2020-Feb-26 21:36 129 0 gusting 2 -14.4
2020-Feb-26 21:26 052 -13.9
2020-Feb-26 21:16 122 1 gusting 1 -13.9
2020-Feb-26 21:06 053 0 gusting 1 -13.9
2020-Feb-26 20:56 036 -13.9
2020-Feb-26 20:46 059 -13.9
2020-Feb-26 20:36 026 -14.4
2020-Feb-26 20:26 073 -14.4
2020-Feb-26 20:16 059 -14.4
2020-Feb-26 20:06 059 -13.9
2020-Feb-26 19:56 059 -13.9
2020-Feb-26 19:46 059 -13.9
2020-Feb-26 19:36 082 -13.9
2020-Feb-26 19:26 082 -14.4
2020-Feb-26 19:16 082 -14.4
2020-Feb-26 19:06 082 -13.9
2020-Feb-26 18:56 082 -13.9
2020-Feb-26 18:46 082 -13.9
2020-Feb-26 18:36 082 -13.9
2020-Feb-26 18:26 082 -13.9
2020-Feb-26 18:16 082 -13.3
2020-Feb-26 18:06 075 0 gusting 1 -13.3
2020-Feb-26 17:56 064 1 gusting 1 -12.8
2020-Feb-26 17:46 080 -12.8
2020-Feb-26 17:36 080 -12.2
2020-Feb-26 17:26 080 -12.2
2020-Feb-26 17:16 080 -11.7
2020-Feb-26 17:06 080 -11.1
2020-Feb-26 16:56 080 -10.6
2020-Feb-26 16:46 080 -9.4
2020-Feb-26 16:36 088 -8.9
2020-Feb-26 16:26 088 -8.3
2020-Feb-26 16:16 088 -7.8
2020-Feb-26 16:06 088 -7.2
2020-Feb-26 15:56 088 -7.2
2020-Feb-26 15:46 088 -6.7
2020-Feb-26 15:36 088 -6.7
2020-Feb-26 15:26 088 -6.1
2020-Feb-26 15:16 104 -6.1
2020-Feb-26 15:06 057 -6.1
2020-Feb-26 14:56 035 -6.1
2020-Feb-26 14:46 036 0 gusting 0 -6.1
2020-Feb-26 14:36 094 -6.1
2020-Feb-26 14:26 016 -6.1
2020-Feb-26 14:16 050 -6.1
2020-Feb-26 14:06 161 2 gusting 4 -6.1